Find BSAT-3B

NORAD ID: 37207 Int'l Des: 2010-056 Owner: BSAT Country: J operational
HEOCIRCULARGSOGEO

Current View

Loading 3D Globe...

About BSAT-3B

Description loading...

Upcoming Passes

Passes for default location (London). Set your location on the main map for personalized predictions.

Altitude History

Loading altitude history...

Two-Line Element Set

1 37207U 10056B 26151.52298486 -.00000337 00000-0 00000+0 0 9993
2 37207 0.0654 246.7494 0001006 273.4060 26.9827 1.00271900 51933
Epoch: May 31, 2026 • Age: 11 hours

Current Status

Altitude 35790.3 km
Velocity 3.07 km/s
Sub-Earth Point 0.07°N, 109.83°E
Launch Date Oct 28, 2010
Age 15.5 years
Type other

Technical Details

Classification Payload
Mass 2060.00 kg
Dry Mass 975.00 kg
Total Mass 2060.00 kg
Length 3.80 m
Diameter 1.90 m
Span 14.70 m
Shape Box + 2 Pan
Manufacturer LMN
Bus Type A2100A
Phase Status In Orbit
Owner/State BSAT/J

Most Searched